DW9064 Weather Reports


Display with metric or nautical units.
time (UTC)temp
F
wind
direction
speed
MPH
gust
MPH
rain 1hr
in
rain 24hr
in
rain mn
in
humidity
%
barometer
mb
20260508072407 50 331 6.0 8.0 0.00 0.00 0.00 82 1028.0
20260508071506 50 316 6.0 8.0 0.00 0.00 0.00 82 1027.8
20260508070606 50 314 6.0 8.0 0.00 0.00 0.00 81 1027.7
20260508065706 51 323 6.0 8.0 0.00 0.00 0.00 79 1027.6
20260508064807 51 325 6.0 9.0 0.00 0.00 0.00 79 1027.4
20260508063906 51 314 6.0 9.0 0.00 0.00 0.00 79 1027.3
20260508063006 52 315 7.0 8.0 0.00 0.00 0.00 79 1027.2
20260508062106 52 319 5.0 9.0 0.00 0.00 0.00 78 1027.2
20260508060306 52 317 7.0 8.0 0.00 0.00 0.00 78 1027.1
20260508055406 53 314 7.0 9.0 0.00 0.00 0.00 77 1026.9
20260508054506 53 322 8.0 9.0 0.00 0.00 0.00 77 1026.8
20260508053607 53 314 6.0 8.0 0.00 0.00 0.00 76 1026.8
20260508052707 54 314 6.0 10.0 0.00 0.00 0.00 73 1026.5
20260508051806 55 314 8.0 10.0 0.00 0.00 0.00 73 1026.4
20260508050907 55 314 8.0 10.0 0.00 0.00 0.00 74 1026.5
20260508050006 55 322 8.0 8.0 0.00 0.00 0.00 73 1026.3
20260508044206 56 316 8.0 11.0 0.00 0.00 0.00 73 1026.3
20260508043306 56 319 8.0 11.0 0.00 0.00 0.00 73 1026.0
20260508041506 57 314 8.0 10.0 0.00 0.00 0.00 71 1025.9
20260508040606 57 314 7.0 9.0 0.00 0.00 0.00 69 1026.0
20260508035706 58 335 6.0 9.0 0.00 0.00 0.00 66 1025.9
20260508034806 58 314 7.0 11.0 0.00 0.00 0.00 68 1025.5
20260508033906 58 316 7.0 9.0 0.00 0.00 0.00 67 1025.4
20260508033006 60 317 6.0 11.0 0.00 0.00 0.00 65 1025.3
20260508032106 60 319 8.0 10.0 0.00 0.00 0.00 63 1025.2
20260508031206 62 301 6.0 9.0 0.00 0.00 0.00 61 1025.4
20260508030306 63 305 6.0 12.0 0.00 0.00 0.00 56 1025.1
20260508025406 63 289 5.0 12.0 0.00 0.00 0.00 55 1025.1
20260508024506 64 309 4.0 11.0 0.00 0.00 0.00 56 1025.0
20260508023606 66 300 5.0 11.0 0.00 0.00 0.00 51 1025.0
20260508021806 66 304 6.0 12.0 0.00 0.00 0.00 47 1024.9
20260508020906 66 295 5.0 12.0 0.00 0.00 0.00 44 1025.0
20260508020006 65 308 4.0 8.0 0.00 0.00 0.00 50 1024.9
20260508015106 68 314 4.0 8.0 0.00 0.00 0.00 44 1024.9
20260508014206 69 313 6.0 10.0 0.00 0.00 0.00 39 1024.9
20260508013306 70 322 4.0 8.0 0.00 0.00 0.00 37 1025.0
20260508012406 73 273 4.0 10.0 0.00 0.00 0.00 30 1024.9
20260508011506 75 244 4.0 11.0 0.00 0.00 0.00 23 1025.0
20260508010606 77 220 5.0 13.0 0.00 0.00 0.00 17 1025.1
20260508005706 78 231 4.0 13.0 0.00 0.00 0.00 16 1025.0
20260508003006 80 196 7.0 15.0 0.00 0.00 0.00 10 1025.1
20260508002106 81 208 5.0 14.0 0.00 0.00 0.00 10 1025.2
20260508001206 81 217 7.0 16.0 0.00 0.00 0.00 10 1025.1
20260507235406 81 199 8.0 15.0 0.00 0.00 0.00 10 1025.0
20260507234506 81 211 7.0 13.0 0.00 0.00 0.00 10 1025.2
20260507233606 81 175 5.0 13.0 0.00 0.00 0.00 10 1025.1
20260507231806 82 197 7.0 17.0 0.00 0.00 0.00 10 1025.1
20260507230906 82 202 10.0 15.0 0.00 0.00 0.00 10 1025.2
20260507230006 82 182 5.0 15.0 0.00 0.00 0.00 10 1025.4
20260507225106 81 190 5.0 15.0 0.00 0.00 0.00 10 1025.4
20260507223306 82 186 10.0 15.0 0.00 0.00 0.00 10 1025.6
20260507222405 82 189 8.0 13.0 0.00 0.00 0.00 10 1025.7
20260507220607 82 184 9.0 24.0 0.00 0.00 0.00 10 1025.8
20260507215705 82 207 15.0 24.0 0.00 0.00 0.00 10 1025.8
20260507214805 83 181 4.0 17.0 0.00 0.00 0.00 10 1025.9
20260507213906 83 167 9.0 18.0 0.00 0.00 0.00 10 1026.0
20260507213006 82 175 4.0 18.0 0.00 0.00 0.00 10 1026.1
20260507212105 82 193 6.0 14.0 0.00 0.00 0.00 10 1026.2
20260507204505 81 186 6.0 23.0 0.00 0.00 0.00 10 1026.5
20260507203605 80 195 14.0 27.0 0.00 0.00 0.00 10 1026.5
20260507202705 80 185 14.0 27.0 0.00 0.00 0.00 10 1026.6
20260507201805 79 186 11.0 17.0 0.00 0.00 0.00 10 1026.7
20260507200905 79 184 5.0 16.0 0.00 0.00 0.00 13 1027.0
20260507200005 78 162 3.0 12.0 0.00 0.00 0.00 16 1027.1
20260507193305 77 215 3.0 11.0 0.00 0.00 0.00 22 1027.5
20260507191505 76 195 5.0 11.0 0.00 0.00 0.00 22 1027.7
20260507190605 76 192 8.0 11.0 0.00 0.00 0.00 24 1027.7
20260507185705 75 188 7.0 12.0 0.00 0.00 0.00 23 1027.9
20260507184805 74 190 6.0 13.0 0.00 0.00 0.00 25 1028.0
20260507183905 73 174 6.0 12.0 0.00 0.00 0.00 28 1028.0
20260507182105 72 176 8.0 11.0 0.00 0.00 0.00 32 1028.2
20260507181205 71 179 2.0 10.0 0.00 0.00 0.00 33 1028.4
20260507180305 71 170 4.0 9.0 0.00 0.00 0.00 39 1028.6
20260507175405 70 166 3.0 5.0 0.00 0.00 0.00 41 1028.5
20260507174505 70 166 2.0 6.0 0.00 0.00 0.00 38 1028.6
20260507172705 68 127 2.0 8.0 0.00 0.00 0.00 46 1028.6
20260507171805 67 129 2.0 8.0 0.00 0.00 0.00 47 1028.6
20260507170905 68 89 2.0 7.0 0.00 0.00 0.00 46 1028.9
20260507170005 67 119 1.0 7.0 0.00 0.00 0.00 49 1029.1
20260507165105 65 129 2.0 8.0 0.00 0.00 0.00 52 1029.1
20260507164205 65 107 1.0 6.0 0.00 0.00 0.00 53 1029.4
20260507163305 64 124 4.0 8.0 0.00 0.00 0.00 52 1029.4
20260507161505 64 106 1.0 7.0 0.00 0.00 0.00 57 1029.8
20260507160605 62 80 2.0 8.0 0.00 0.00 0.00 58 1029.7
20260507155705 62 336 3.0 7.0 0.00 0.00 0.00 59 1029.9
20260507153905 60 75 1.0 7.0 0.00 0.00 0.00 63 1029.9
20260507152105 58 86 3.0 6.0 0.00 0.00 0.00 68 1029.9
20260507151205 57 85 2.0 6.0 0.00 0.00 0.00 70 1029.9
20260507150305 56 111 2.0 8.0 0.00 0.00 0.00 70 1030.0
20260507144505 55 115 1.0 4.0 0.00 0.00 0.00 75 1029.9
20260507143605 54 123 1.0 6.0 0.00 0.00 0.00 77 1030.0
20260507141804 50 110 1.0 4.0 0.00 0.00 0.00 87 1030.0
20260507140006 47 355 1.0 4.0 0.00 0.00 0.00 90 1029.8
20260507135105 46 358 3.0 4.0 0.00 0.00 0.00 90 1029.4
20260507134206 46 9 3.0 4.0 0.00 0.00 0.00 90 1029.2
20260507133305 45 7 0.0 4.0 0.00 0.00 0.00 90 1029.3
20260507132404 45 343 0.0 4.0 0.00 0.00 0.00 90 1029.2
20260507131504 45 1 2.0 4.0 0.00 0.00 0.00 89 1028.9
20260507130605 45 10 2.0 4.0 0.00 0.00 0.00 89 1028.8
20260507125704 45 6 2.0 4.0 0.00 0.00 0.00 89 1028.6
20260507124804 45 352 2.0 6.0 0.00 0.00 0.00 91 1028.4
20260507123904 45 336 3.0 8.0 0.00 0.00 0.00 91 1028.4
20260507121204 44 340 4.0 7.0 0.00 0.00 0.00 90 1028.3
20260507120305 44 334 4.0 5.0 0.00 0.00 0.00 90 1028.2
20260507115404 44 347 3.0 4.0 0.00 0.00 0.00 90 1028.3
20260507114504 44 338 3.0 6.0 0.00 0.00 0.00 90 1028.3
20260507113604 44 347 4.0 6.0 0.00 0.00 0.00 90 1028.1
20260507111804 44 316 4.0 6.0 0.00 0.00 0.00 89 1027.9
20260507110904 44 318 4.0 5.0 0.00 0.00 0.00 88 1027.8
20260507105105 45 322 4.0 8.0 0.00 0.00 0.00 87 1027.7
20260507104204 45 335 4.0 8.0 0.00 0.00 0.00 86 1027.7
20260507103304 45 330 4.0 6.0 0.00 0.00 0.00 86 1027.7
20260507102404 46 347 4.0 6.0 0.00 0.00 0.00 85 1027.5
20260507101504 46 335 3.0 7.0 0.00 0.00 0.00 85 1027.6
20260507100604 46 339 4.0 7.0 0.00 0.00 0.00 85 1027.5
20260507095704 46 331 4.0 8.0 0.00 0.00 0.00 86 1027.4
20260507094804 46 330 5.0 8.0 0.00 0.00 0.00 86 1027.2
20260507093904 46 318 6.0 8.0 0.00 0.00 0.00 86 1027.1
20260507093004 46 314 5.0 8.0 0.00 0.00 0.00 85 1027.1
20260507091204 46 315 4.0 8.0 0.00 0.00 0.00 84 1026.9
20260507090304 47 314 4.0 7.0 0.00 0.00 0.00 84 1026.8
20260507085404 47 320 5.0 7.0 0.00 0.00 0.00 83 1026.7
20260507084504 48 314 5.0 8.0 0.00 0.00 0.00 83 1026.5
20260507083604 48 316 7.0 8.0 0.00 0.00 0.00 82 1026.4
20260507082704 48 314 6.0 8.0 0.00 0.00 0.00 81 1026.3
20260507081804 48 314 7.0 9.0 0.00 0.00 0.00 81 1026.2
20260507080904 48 318 6.0 8.0 0.00 0.00 0.00 80 1026.3
20260507080004 49 322 4.0 8.0 0.00 0.00 0.00 80 1026.1
20260507075104 49 318 4.0 8.0 0.00 0.00 0.00 80 1026.1
20260507074204 49 329 7.0 8.0 0.00 0.00 0.00 80 1026.0